Location: Braunsdorf
(50.7357°N, 11.9136°E)
Time: 19:18:07
(UTC+00:00)

Cosmos 2219 Rocket - Pass Details

Date: 17 February 2020
Orbit: 828 x 846 km, 71.0° (Epoch: 05 April)

Event Time Altitude Azimuth Distance (km) Brightness Sun altitude
Exits shadow 02:33:04 29° 20° (NNE) 1,513 3.8 -36.0°
Drops below altitude 10° 02:35:46 10° 27° (NNE) 2,479 5.2 -35.7°
Sets 02:38:15 0° 30° (NNE) 3,417 6.1 -35.3°
